Погода в Ашхабаде

Погода в Ашхабаде : погода сейчас, прогноз погоды и архив. Всё, что Вы хотите узнать о погоде в Ашхабаде!

Поиск расширенной информации на нашем сайте:

Другие новости

Новости СМИ2

Главная страница сайта

Новости сайта

03.07.2017

Напоминаем, что на нашем специализированном сайте Метеоцентр.Азия вы можете получить высокодетализированные автоматические прогнозы погоды по пунктам России, СНГ и мира в авиационном формате (включающие направление и скорость ветра, видимость, явления погоды, количество и форму облачности, нижнюю и верхнюю границу облачности).

Рекомендуем: вред курения

Погода в Ашхабаде - сегодня

Время (UTC), дата Ветер
(°,м/с) 
Видим.   Явления Облачность Т
(°С)
Тd
(°С)
f(%) Тe
(°С)
Pmin
(гПа)
dP
(гПа)
Po
(мм)
O2
(г/м3)
Тmin Tmax R s Состояние
почвы
09 18.06.18 320 (СЗ) 10 км    5/5 1500 м 
[Sc]
+35 +10 22 +37  1001.9  -1  734  261           
12 18.06.18 270 (З) 10 км    8/6 1500 м кучево-дожд., средняя 
[Cb cap|Ac trans]
+36.8 +13.6 25 +44  1000.5  -1.1  733  258           
15 18.06.18 //0 (С) 10 км    6/5 1500 м средняя 
[Sc|Ac trans]
+35.8 +10.9 22 +39  1000.9  0.2  734  259    +37.6      полностью
покрыта
пылью 
18 18.06.18 250 (З) 10 км    3/0 средняя 
[Ac trans]
+30.6 +12.5 33 +36  1002.9  1.6  735  264    +37.6       
21 18.06.18 270 (З) 10 км    ясно верхняя 
[Sc diur, vesp|Ci]
+27.4 +11.1 36 +227      74  24           
00 19.06.18 170 (Ю) 10 км    ясно 
+26.8 +11.2 38 +30  1003.5  0.3  735  268           
03 19.06.18 320 (СЗ) 10 км    ясно 
+28.5 +8.5 29 +29  1005  1.6  736  267           
06 19.06.18 300 (СЗ) 10 км    3/3 1500 м средняя 
[Sc|Ac trans]
+31 +9.7 27 +32  1005.4  0.5  737  265  +24.4         
09 19.06.18 300 (СЗ) 10 км    5/5 1500 м средняя 
[Sc|Ac trans]
+34.8 +7.6 19 +35  1004.6  -0.5  736  262           
12 19.06.18 290 (З) 10 км    8/0 кучево-дожд., средняя 
[Cb cap|Ac trans]
+36 +6.5 16 +36  1004.4  -0.1  736  261           
15 19.06.18 300 (СЗ) 10 км    9/5 1500 м кучево-дожд., средняя, верхняя 
[Cb cap|Ac trans|Ci fib]
+34.2 +7.4 19 +34  1005.4  0.9  737  263    +36.4       
18 19.06.18 260 (З) 10 км    5/3 1500 м средняя 
[Sc|Ac trans]
+30.6 +10.6 29 +33  1006.9  1.2  738  265    +36.4       
21 19.06.18 050 (СВ) 10 км    ясно 
+26.2 +13 44 +32  1008.3  1.1  739  269           
00 20.06.18 090 (В) 10 км    5/0 верхняя 
[Ci fib]
+27.4 +6.8 27 +27  1009  0.7  739  270           
03 20.06.18 тихо ()   10 км    5/0 средняя 
[Ac trans]
+26 +8 32 +26  1010.8  1.6  740  271           
06 20.06.18 090 (В) 10 км    ясно 
+31.6 +5.5 19 +32  1010.9  0.6  741  267  +24.8         
09 20.06.18 130 (ЮВ) 10 км    ясно 
+33.8 +5.3 17 +34  1010.3  -0.4  740  265           
12 20.06.18 080 (В) 10 км    8/5 1500 м средняя 
[Sc|Ac trans]
+36.2 +4.8 14 +36  1008.8  -1.4  739  262           
15 20.06.18 110 (В) 10 км    3/0 средняя 
[Ac trans]
+35.2 +4.8 15 +35  1008.4  -0.5  739  263    +37       
18 20.06.18 110 (В) 10 км    3/0 средняя 
[Ac trans]
+31.4 +6.2 21 +31  1009.7  1.1  740  266    +37       
21 20.06.18 120 (ЮВ) 10 км    ясно 
+29.2 +4 20 +29  1009.9  740  269           
00 21.06.18 тихо ()   10 км    3/0 средняя 
[Ac trans]
+26.8 +6.4 27 +27  1009.9  -0.2  740  270           
03 21.06.18 290 (З) 10 км    1/0 средняя 
[Ac trans]
+27.4 +9.9 33 +29  1010.6  0.8  740  269           
06 21.06.18 320 (СЗ) 10 км    3/1 1500 м средняя 
[Cu hum|Ac trans]
+32.2 +6.5 20 +32  1010.6  0.3  740  266  +24.5         
09 21.06.18 310 (СЗ) 10 км    5/3 1500 м средняя 
[Sc|Ac trans]
+36.3 +6.1 16 +36  1009.2  -1.1  740  262           
Время (UTC), дата Ветер
(°,м/с) 
Видим.   Явления Облачность Т
(°С)
Тd
(°С)
f(%) Тe
(°С)
Pmin
(гПа)
dP
(гПа)
Po
(мм)
O2
(г/м3)
Тmin Tmax R s Состояние
почвы

Для получения пояснительной информации подведите курсор к названию столбца.

ПОГОДА в Ашхабаде - архив

Всё, что Вы хотите узнать о погоде в Ашхабаде - удобно и подробно!

Выберите нужную дату (начиная с 1 января 2015* года) и нажмите кнопку "Найти".
Будут отображены архивные сводки погоды по пункту Ашхабад, начиная с указанной даты.


Отображать данные в формате CSV (для использования в таблицах Excel)


Внимание! Наш архив погоды предназначен исключительно для личного некоммерческого использования в познавательных целях. Если Вам необходимы официальные справки о состоянии погоды (для производственных, юридических, коммерческих и т.п. целей), обращайтесь в органы Росгидромета.

*Примечание: данная дата относится к архиву по метеостанциям СССР (Россия, СНГ, Балтия).
Архив по метеостанциям Зарубежной Европы и Азии (кроме Китая) хранится 10 дней, по другим регионам земного шара (Китай, Африка, Америка, Австралия, Океания) - 1 день.

Ашхабад - район местоположения метеостанции


Название, широта, долгота, высота метеостанции:
Ашхабад (город) 38°ш. 58.3°д. 208 м над ур. моря [Туркменистан]

Дополнительная информация

В oтличие oт бoльшинства пoгoдных сайтoв мы публикуем пoдрoбную метеoинфoрмацию в детальнoм прoфессиoнальнoм фoрмате.

Характеристики температуры и влажнoсти вoздуха измеряются на высoте 2 м в тени вдали oт зданий и деревьев.
Скoрoсть ветра измеряется на высoте 10 м (на урoвне рoста челoвека скoрoсть ветра ниже в 1.5-2 раза). Если метеoстанция нахoдится в гoрoде или в лесу, тo скoрoсть ветра занижена на 2-4 м/с пo сравнению с oткрытым местoм. Скoрoсть ветра над акватoриями крупных рек и oзёр, а также на вершинах хoлмoв на 2-5 м/с выше, чем в oбычных услoвиях.
Атмoсфернoе давление в разных тoчках местнoсти мoжет значительнo oтличаться oт давления на метеoстанции, в зависимoсти oт услoвий рельефа (при пoдъёме на 10 м давление пoнижается примернo на 1 мм рт.ст.).